Location: Arbon
(43.0005°N, 0.7472°E)
Time: 00:17:19
(UTC+00:00)

S-56A Canister/Altair - Pass Details

Date: 05 December 2020
Orbit: 633 x 2499 km, 38.9° (Epoch: 19 January)

Event Time Altitude Azimuth Distance (km) Brightness Sun altitude
Rises 17:56:31 0° 244° (WSW) 6,112 13.8 -16.6°
Reaches altitude 10° 18:00:46 10° 242° (WSW) 4,993 12.9 -17.4°
Maximum altitude 18:14:22 64° 166° (SSE) 2,088 9.6 -19.8°
Enters shadow 18:20:24 28° 96° (E) 2,702 9.7 -20.9°
